Theta_e
334 343 351 354 354 355 355 355 353 352 350 350 350 349 348 348 349 349 352 351 349 348 347 346 346 344 341 340 339 340 341 343 346 351 350 349 346 347 348 350 350 350 352
337 345 349 353 354 354 354 353 352 351 349 349 349 348 347 347 346 347 349 350 347 345 344 344 344 343 339 337 337 336 337 338 339 342 348 348 347 345 346 347 349 349 351
338 344 348 351 353 353 352 352 352 352 349 349 348 349 348 347 348 347 348 349 346 345 342 341 340 338 335 334 334 334 334 334 335 336 337 341 341 345 344 345 346 348 348
339 343 346 348 352 352 352 351 351 352 352 349 350 350 348 346 345 347 348 345 344 342 340 339 337 333 332 331 330 330 330 331 332 334 333 341 343 346 345 343 345 344 343
339 342 346 347 351 352 351 350 350 350 350 351 349 347 345 343 341 341 344 343 342 339 336 334 333 330 327 326 326 325 325 328 331 329 332 334 341 344 345 344 342 342 342
337 341 344 348 351 351 350 350 350 350 351 350 349 346 344 342 339 340 339 340 338 336 334 331 329 327 324 322 321 320 321 324 325 323 326 331 333 343 343 342 341 340 339
329 338 343 347 349 350 350 350 350 350 351 350 349 348 346 340 335 335 336 336 335 334 331 330 326 323 320 318 316 315 317 320 315 320 321 323 329 336 335 334 335 336 337
326 339 343 341 344 347 349 349 348 349 350 350 349 348 344 339 336 333 333 334 334 333 329 328 323 321 319 316 314 313 315 318 311 317 316 317 332 333 333 334 334 333 334
325 337 340 342 342 340 343 344 345 346 347 348 348 347 342 339 338 334 333 333 334 331 328 325 322 320 317 314 311 311 314 317 303 310 314 313 327 327 328 328 329 330 330
322 328 335 338 339 340 341 337 339 341 342 343 342 337 334 334 334 331 330 332 332 328 327 323 321 319 316 312 308 306 311 311 300 306 308 313 322 323 323 325 326 326 327
321 324 327 333 335 337 336 335 333 335 337 336 333 330 327 326 326 326 325 330 330 328 326 323 320 318 313 308 305 306 306 296 298 303 305 316 317 318 319 320 322 324 325
316 320 325 327 331 333 338 335 332 333 334 331 328 326 325 323 322 322 320 325 327 327 326 322 320 316 307 296 295 302 295 295 295 299 304 313 313 316 318 319 320 323 324
315 319 324 326 328 330 333 331 333 332 328 328 327 327 327 325 320 318 315 317 316 317 314 314 311 304 301 298 295 295 295 294 294 298 306 312 314 314 316 318 322 323 322
311 317 322 326 327 327 329 328 331 331 329 328 331 328 326 324 316 312 312 312 310 308 307 304 302 299 296 296 296 295 294 293 293 297 302 311 314 315 317 322 323 321 323
305 311 319 323 326 328 326 325 327 329 329 328 324 326 327 324 318 310 310 311 308 307 305 302 299 296 295 295 295 295 294 294 294 298 298 311 315 317 320 321 322 323 324
305 306 314 322 325 326 327 324 323 324 324 323 322 323 323 322 317 311 310 310 309 306 304 301 296 295 294 294 294 294 293 293 294 295 300 305 316 318 318 322 323 324 325
302 304 307 319 322 324 323 323 322 322 322 324 323 321 320 319 317 311 308 308 309 306 302 297 295 294 293 294 293 293 293 293 293 295 299 304 305 313 319 320 323 326 324
299 301 305 314 318 318 319 320 322 321 320 320 321 322 319 317 316 312 307 307 306 303 300 295 294 293 292 292 290 291 291 292 293 294 296 302 303 302 308 313 319 324 320
299 299 301 304 314 316 316 318 319 319 318 318 318 317 318 315 313 309 306 305 304 300 296 295 292 292 290 290 290 290 290 291 291 294 294 299 302 299 299 306 306 308 317
297 299 300 301 304 311 313 313 313 314 314 315 315 317 315 315 310 306 304 304 301 297 294 293 291 290 290 290 292 290 289 290 290 289 292 297 295 297 297 295 295 298 309
295 296 297 298 299 302 305 307 308 309 310 311 314 315 314 314 311 304 302 302 298 296 294 292 291 290 289 288 288 287 287 289 289 289 291 293 293 292 292 292 293 294 298
293 294 295 295 297 298 301 302 304 305 305 309 310 311 312 311 310 305 301 299 296 293 292 292 291 289 289 289 286 285 283 285 287 288 289 291 290 290 290 291 290 292 295
291 292 293 294 295 295 298 300 300 301 300 299 301 305 306 308 308 307 303 298 295 294 293 292 291 290 288 288 288 287 283 283 283 286 287 288 289 287 288 289 289 290 292
290 291 292 293 293 294 294 294 294 295 294 295 296 299 302 303 303 303 303 299 296 293 292 291 292 290 289 287 286 290 288 287 283 282 284 286 287 287 286 287 287 288 290
290 289 290 290 291 292 292 292 292 291 292 293 294 294 295 298 300 300 300 298 297 295 292 291 290 289 289 289 287 285 285 286 286 283 281 282 284 285 287 287 286 286 288
288 288 288 288 289 290 291 290 290 289 289 289 290 290 291 293 295 296 297 297 296 294 292 291 290 289 290 289 288 287 286 286 285 284 282 280 281 283 286 286 286 286 287
Wind_Speed
5 11 17 16 14 13 16 14 13 14 12 12 12 11 10 9 9 10 11 12 12 11 11 11 12 11 11 10 10 9 9 8 11 11 12 13 13 13 14 13 10 8 12
12 13 15 17 16 13 14 14 13 14 13 13 13 12 10 9 8 8 9 10 11 9 8 9 10 10 10 9 9 9 8 8 8 8 8 10 12 12 13 12 10 10 14
13 13 14 15 16 15 15 15 14 15 15 14 12 13 12 9 7 8 9 10 11 11 7 8 9 9 9 9 8 8 7 7 6 7 5 2 7 11 12 11 10 12 11
12 12 13 15 16 15 15 16 15 15 16 13 14 14 13 12 7 9 11 11 13 10 6 7 8 9 8 8 8 7 7 7 8 8 4 4 8 11 11 10 11 13 12
10 12 10 13 17 17 15 14 13 11 15 14 13 13 12 10 9 7 9 9 9 7 5 6 7 7 7 7 6 6 6 7 9 7 6 6 5 10 12 13 11 11 9
9 11 13 14 15 16 16 16 13 11 12 15 14 13 12 11 8 6 7 6 6 6 5 5 7 7 7 6 5 5 5 7 8 6 6 7 6 10 11 11 9 9 9
8 9 12 16 15 15 15 15 15 14 13 13 14 14 16 10 8 7 7 8 7 7 6 7 6 6 6 6 5 4 5 7 6 6 6 6 5 8 6 4 5 6 6
8 8 11 16 15 14 15 15 14 13 12 12 15 16 13 12 11 9 8 8 9 8 7 7 6 6 6 6 5 5 6 6 7 6 6 5 6 6 5 5 4 4 5
8 8 8 11 13 15 15 14 14 13 12 11 11 12 12 13 11 10 8 9 9 9 9 8 8 7 6 5 5 5 8 8 7 4 5 3 5 4 4 3 3 3 3
6 8 9 8 8 7 8 14 13 12 11 10 10 10 9 10 11 9 7 10 10 10 10 9 8 7 6 5 4 4 7 9 6 5 4 3 3 3 3 3 2 2 2
4 7 7 9 8 8 6 7 10 12 11 11 12 12 8 5 7 9 7 8 9 9 10 10 9 8 6 4 3 4 5 3 5 4 2 6 3 2 3 2 3 3 3
7 6 7 8 9 9 8 6 6 5 5 6 6 7 5 6 5 7 7 10 10 10 11 11 10 8 5 1 0 3 2 3 4 4 2 3 1 1 2 2 3 5 5
10 6 9 9 8 10 8 6 4 4 4 4 8 9 7 6 4 4 3 4 4 7 3 5 5 3 3 2 1 2 2 3 3 2 3 3 1 3 3 4 5 5 4
9 13 11 11 10 10 7 7 7 7 6 6 8 9 6 5 5 4 4 5 5 4 6 5 3 4 3 4 5 3 3 3 2 2 1 3 1 3 5 7 7 6 7
9 10 12 11 11 10 8 6 7 8 8 8 6 7 6 6 6 5 5 5 5 4 5 5 4 4 4 3 3 4 4 3 4 2 0 1 3 3 7 7 8 8 9
8 11 10 14 13 10 9 7 5 5 6 5 4 5 6 6 6 6 6 6 6 5 5 5 5 5 4 3 3 3 3 3 3 4 2 1 5 4 5 8 9 9 10
11 8 7 12 10 11 10 8 5 5 5 6 6 6 8 6 7 7 6 5 6 6 7 6 5 4 4 3 4 4 3 3 3 3 3 2 2 8 10 4 10 11 11
14 15 7 2 8 7 6 5 5 5 4 4 5 6 7 7 10 7 5 5 5 5 5 5 5 4 5 5 4 4 3 3 4 4 3 3 3 2 6 9 5 10 10
14 16 15 9 3 7 6 5 5 6 4 4 4 4 7 8 9 7 5 5 6 4 4 5 2 4 3 3 4 4 4 3 4 3 5 5 6 5 3 5 7 7 5
15 16 16 13 11 6 4 4 3 2 2 2 3 4 7 6 7 6 5 6 5 4 3 2 3 1 2 4 3 3 3 3 3 4 4 3 4 5 5 5 3 1 2
18 17 17 18 16 9 5 4 3 1 1 2 2 5 6 6 7 6 5 6 5 6 6 5 4 5 1 3 4 3 3 3 4 4 4 4 5 5 5 4 3 3 3
15 16 17 16 16 12 6 4 3 3 2 2 2 2 3 5 6 6 6 5 6 5 6 7 5 3 3 6 5 2 2 4 4 5 4 5 7 5 6 6 6 6 5
15 16 16 16 15 14 13 8 5 4 4 5 5 3 3 3 5 6 6 5 6 6 7 7 7 8 5 5 5 5 2 6 1 1 6 5 5 4 4 6 7 7 6
12 12 14 15 16 14 16 11 12 7 6 4 4 4 5 5 2 1 3 4 5 4 6 6 6 5 5 6 2 7 2 4 4 2 3 4 5 7 7 5 5 6 6
10 11 11 13 15 15 15 13 9 11 5 4 7 9 9 7 6 3 1 2 3 4 4 6 5 6 4 5 5 2 2 1 1 3 4 4 2 5 6 7 6 5 6
7 8 9 12 13 13 13 14 14 13 10 9 9 9 8 6 6 8 7 3 3 3 5 5 7 7 8 5 4 5 5 5 5 4 3 4 4 5 6 6 7 7 5
Wind_Direction
195 163 164 163 158 152 145 141 132 125 140 138 136 131 122 115 106 100 102 100 93 90 87 84 82 76 71 65 66 66 64 55 47 83 91 86 71 64 61 55 49 60 64
149 162 165 165 161 159 144 139 139 142 152 151 145 138 133 128 132 132 135 132 115 103 93 86 81 78 74 66 66 60 51 45 39 40 88 89 83 69 64 58 48 59 62
153 163 162 167 164 159 148 148 157 161 159 157 157 151 138 122 121 167 134 107 97 95 93 86 83 76 70 66 61 59 48 41 32 17 329 95 99 84 73 64 62 60 61
150 161 165 165 166 163 159 162 173 177 158 165 172 151 140 130 119 109 120 113 110 101 102 101 98 90 81 70 64 54 38 25 12 12 20 144 104 93 86 75 68 72 55
149 158 165 168 167 167 170 168 169 178 158 164 159 149 145 149 142 135 110 101 106 112 118 112 105 97 85 73 61 51 32 18 7 49 62 45 82 93 85 87 78 83 64
152 159 158 170 174 173 172 168 174 180 172 169 166 166 160 149 149 161 187 159 143 146 142 131 114 107 93 84 70 48 41 26 60 60 58 49 54 70 83 73 64 63 67
153 161 162 170 176 176 177 174 177 184 185 174 169 174 169 164 166 170 184 188 180 173 158 138 126 113 103 96 85 75 51 37 84 79 67 51 52 66 68 94 80 67 77
159 157 169 174 175 180 179 181 184 189 187 186 186 187 166 168 170 179 188 193 181 173 163 143 135 128 115 105 93 79 53 54 68 83 75 57 61 84 94 100 104 93 91
167 150 167 179 185 179 179 182 184 188 193 201 203 194 162 162 169 191 195 188 176 175 170 158 147 139 131 105 84 71 47 88 72 90 77 51 53 92 93 101 102 99 97
185 166 171 176 180 187 190 183 185 187 189 199 180 159 155 156 156 174 197 193 180 183 169 164 158 147 129 120 95 49 32 67 83 86 76 41 78 105 85 78 90 115 105
218 199 168 175 184 187 191 192 189 186 190 180 168 162 150 150 151 155 168 185 186 185 174 168 162 150 136 133 127 65 58 70 88 81 64 53 46 104 105 115 133 139 120
221 213 201 174 181 181 196 190 191 190 186 172 165 159 150 154 155 151 172 183 186 167 171 173 165 150 134 147 99 67 99 101 96 105 86 64 48 137 123 120 143 132 127
209 195 192 191 177 180 191 172 180 180 170 171 168 170 164 153 169 159 167 175 164 150 154 163 147 142 181 208 249 139 111 89 97 104 116 83 1 184 168 171 165 138 144
204 212 199 191 183 184 184 176 178 180 179 180 185 182 171 159 168 174 169 168 160 158 152 151 155 181 220 159 152 128 92 108 116 120 142 136 249 220 179 170 157 169 166
216 207 203 186 190 192 185 179 179 188 187 192 190 171 180 177 175 163 171 163 163 157 157 165 170 182 182 160 147 147 141 133 117 127 106 50 315 267 185 173 175 168 165
234 206 192 191 191 178 186 179 176 172 173 174 180 176 180 174 169 175 170 173 171 172 165 166 173 175 178 163 164 155 152 141 140 140 148 20 22 0 221 190 178 175 170
357 289 206 188 186 182 175 170 161 172 164 180 186 182 179 170 171 176 171 178 183 180 163 157 166 156 159 171 171 165 156 164 165 153 150 162 61 44 33 209 194 167 164
9 12 341 166 167 166 166 158 155 169 168 170 180 186 177 173 166 171 174 184 177 167 162 164 162 167 178 176 173 193 176 172 172 175 164 166 154 91 57 44 4 190 179
10 6 13 3 191 169 153 150 164 165 169 177 166 172 173 170 166 160 170 179 165 164 168 167 166 146 169 183 183 181 185 186 191 180 188 159 166 153 133 92 59 35 182
26 22 13 25 22 40 68 66 57 80 129 148 169 167 166 166 158 156 167 172 156 152 161 174 153 190 155 169 162 163 197 204 196 200 209 178 162 164 166 155 133 77 24
26 30 25 22 17 25 26 48 52 97 63 68 162 160 165 169 165 167 171 164 158 170 173 165 139 176 231 140 89 358 326 279 231 219 208 196 186 181 178 179 181 184 200
25 25 29 29 27 22 16 7 32 39 21 16 11 80 151 174 177 166 173 182 167 148 166 176 161 150 183 185 148 121 232 307 263 236 225 212 206 185 187 193 193 198 199
29 26 28 27 30 28 20 23 14 24 23 14 360 360 14 157 182 176 176 173 174 169 190 189 174 171 191 224 234 151 120 228 145 205 233 218 208 223 215 199 196 201 212
32 33 34 34 33 29 26 34 41 48 34 351 348 352 357 20 75 206 220 188 188 185 184 194 193 180 145 197 267 246 229 146 187 272 288 232 207 210 206 220 211 212 203
33 32 34 36 35 32 36 36 39 36 18 6 15 11 1 351 5 16 334 242 218 191 218 198 191 202 189 181 191 182 209 260 174 142 229 253 256 214 209 202 200 203 216
33 38 32 40 36 28 33 33 34 33 28 29 18 14 0 352 355 346 319 271 259 231 212 210 214 210 218 223 207 194 181 178 201 191 201 229 218 241 209 197 198 201 199